• în România
  • Lista ţărilor
  • Pe 7 zile
  • Temperatura apei
  • Hartă satelitară
  • Meteo pe hartă
  • Widget-uri
  • user-avatar
    Intrare

    Meteo pe oră la Melbourne

    Astăzi, 29 Mai, Luni

    Timp Temperatura Precipitaţii Vânt Presiune Umiditate
    00:00 +7°C° 0 mm 3 m/s 759 mmHg 87%
    01:00 +7°C° 0 mm 3 m/s 759 mmHg 87%
    02:00 +7°C° 0 mm 3 m/s 760 mmHg 87%
    03:00 +5°C° 0 mm 3 m/s 760 mmHg 88%
    04:00 +5°C° 0 mm 3 m/s 760 mmHg 88%
    05:00 +5°C° 0 mm 3 m/s 761 mmHg 89%
    06:00 +5°C° 0 mm 3 m/s 761 mmHg 90%
    07:00 +5°C° 0 mm 3 m/s 762 mmHg 91%
    08:00 +7°C° 0 mm 3 m/s 762 mmHg 86%
    09:00 +9°C° 0 mm 3 m/s 763 mmHg 81%
    10:00 +10°C° 0 mm 3 m/s 763 mmHg 76%
    11:00 +11°C° 0 mm 3 m/s 763 mmHg 70%
    12:00 +12°C° 0 mm 3 m/s 763 mmHg 64%
    13:00 +13°C° 0 mm 3 m/s 763 mmHg 57%
    14:00 +13°C° 0 mm 3 m/s 763 mmHg 59%
    15:00 +14°C° 0 mm 2 m/s 763 mmHg 60%
    16:00 +14°C° 0 mm 2 m/s 763 mmHg 61%
    17:00 +13°C° 0 mm 2 m/s 763 mmHg 67%
    18:00 +10°C° 0 mm 3 m/s 764 mmHg 73%
    19:00 +9°C° 0 mm 3 m/s 764 mmHg 79%
    20:00 +9°C° 0 mm 3 m/s 764 mmHg 79%
    21:00 +9°C° 0 mm 3 m/s 764 mmHg 79%
    22:00 +10°C° 0 mm 3 m/s 764 mmHg 78%
    23:00 +10°C° 0 mm 4 m/s 764 mmHg 78%

    Mâine, 30 Mai, Marţi

    Timp Temperatura Precipitaţii Vânt Presiune Umiditate
    00:00 +10°C° 0 mm 4 m/s 764 mmHg 78%
    01:00 +10°C° 0 mm 4 m/s 764 mmHg 77%
    02:00 +10°C° 0 mm 4 m/s 763 mmHg 79%
    03:00 +10°C° 0 mm 4 m/s 763 mmHg 80%
    04:00 +10°C° 0 mm 4 m/s 763 mmHg 81%
    05:00 +10°C° 0,4 mm 4 m/s 763 mmHg 84%
    06:00 +10°C° 0,4 mm 4 m/s 763 mmHg 87%
    07:00 +10°C° 0,4 mm 3 m/s 764 mmHg 90%
    08:00 +10°C° 0,6 mm 3 m/s 764 mmHg 91%
    09:00 +10°C° 0,6 mm 3 m/s 765 mmHg 91%
    10:00 +10°C° 0,6 mm 3 m/s 766 mmHg 92%
    11:00 +11°C° 0,3 mm 3 m/s 766 mmHg 88%
    12:00 +11°C° 0,3 mm 4 m/s 766 mmHg 83%
    13:00 +11°C° 0,3 mm 4 m/s 766 mmHg 79%
    14:00 +11°C° 0,1 mm 4 m/s 766 mmHg 76%
    15:00 +11°C° 0,1 mm 4 m/s 767 mmHg 73%
    16:00 +10°C° 0,1 mm 4 m/s 767 mmHg 70%
    17:00 +9°C° 0,1 mm 3 m/s 768 mmHg 74%
    18:00 +8°C° 0,1 mm 3 m/s 768 mmHg 77%
    19:00 +7°C° 0,1 mm 3 m/s 769 mmHg 80%
    20:00 +5°C° 0,1 mm 3 m/s 769 mmHg 82%
    21:00 +6°C° 0,1 mm 2 m/s 770 mmHg 83%
    22:00 +6°C° 0,1 mm 2 m/s 770 mmHg 84%
    23:00 +6°C° 0,1 mm 2 m/s 770 mmHg 85%

    Poimâine, 31 Mai, Miercuri

    Timp Temperatura Precipitaţii Vânt Presiune Umiditate
    00:00 +6°C° 0,1 mm 2 m/s 770 mmHg 86%
    01:00 +6°C° 0,1 mm 2 m/s 771 mmHg 87%
    02:00 +6°C° 0 mm 2 m/s 771 mmHg 88%
    03:00 +6°C° 0 mm 2 m/s 771 mmHg 89%
    04:00 +6°C° 0 mm 2 m/s 771 mmHg 90%
    05:00 +6°C° 0 mm 2 m/s 771 mmHg 90%
    06:00 +6°C° 0 mm 2 m/s 772 mmHg 90%
    07:00 +7°C° 0 mm 2 m/s 772 mmHg 89%
    08:00 +8°C° 0 mm 2 m/s 773 mmHg 85%
    09:00 +9°C° 0 mm 2 m/s 773 mmHg 81%
    10:00 +10°C° 0 mm 2 m/s 773 mmHg 77%
    11:00 +10°C° 0 mm 3 m/s 773 mmHg 73%
    12:00 +11°C° 0 mm 3 m/s 773 mmHg 69%
    13:00 +12°C° 0 mm 3 m/s 773 mmHg 65%
    14:00 +12°C° 0 mm 3 m/s 773 mmHg 66%
    15:00 +11°C° 0 mm 3 m/s 773 mmHg 67%
    16:00 +12°C° 0 mm 2 m/s 773 mmHg 68%
    17:00 +10°C° 0 mm 2 m/s 774 mmHg 73%
    18:00 +9°C° 0 mm 2 m/s 774 mmHg 78%
    19:00 +8°C° 0 mm 2 m/s 775 mmHg 84%
    20:00 +7°C° 0 mm 2 m/s 775 mmHg 86%
    21:00 +7°C° 0 mm 2 m/s 775 mmHg 88%
    22:00 +7°C° 0 mm 1 m/s 775 mmHg 90%
    23:00 +7°C° 0 mm 1 m/s 775 mmHg 91%

    1 Iunie, Joi

    Timp Temperatura Precipitaţii Vânt Presiune Umiditate
    00:00 +7°C° 0 mm 1 m/s 775 mmHg 91%
    01:00 +7°C° 0 mm 1 m/s 775 mmHg 92%
    02:00 +7°C° 0 mm 1 m/s 776 mmHg 91%
    03:00 +7°C° 0 mm 1 m/s 776 mmHg 91%
    04:00 +7°C° 0 mm 1 m/s 776 mmHg 90%
    05:00 +6°C° 0 mm 1 m/s 776 mmHg 91%
    06:00 +6°C° 0 mm 1 m/s 776 mmHg 92%
    07:00 +6°C° 0 mm 1 m/s 776 mmHg 93%
    08:00 +7°C° 0 mm 1 m/s 776 mmHg 88%
    09:00 +9°C° 0 mm 1 m/s 777 mmHg 82%
    10:00 +11°C° 0 mm 1 m/s 777 mmHg 76%
    11:00 +12°C° 0 mm 1 m/s 776 mmHg 70%
    12:00 +13°C° 0 mm 1 m/s 776 mmHg 64%
    13:00 +14°C° 0 mm 1 m/s 776 mmHg 58%
    14:00 +14°C° 0 mm 1 m/s 775 mmHg 60%
    15:00 +13°C° 0 mm 1 m/s 775 mmHg 62%
    16:00 +13°C° 0 mm 1 m/s 775 mmHg 65%
    17:00 +11°C° 0 mm 1 m/s 775 mmHg 74%
    18:00 +8°C° 0 mm 1 m/s 776 mmHg 84%
    19:00 +6°C° 0 mm 1 m/s 776 mmHg 94%
    20:00 +5°C° 0 mm 1 m/s 776 mmHg 94%
    21:00 +5°C° 0 mm 1 m/s 776 mmHg 94%
    22:00 +4°C° 0 mm 1 m/s 776 mmHg 94%
    23:00 +4°C° 0 mm 1 m/s 776 mmHg 94%

    2 Iunie, Vineri

    Timp Temperatura Precipitaţii Vânt Presiune Umiditate
    00:00 +3°C° 0 mm 0 m/s 776 mmHg 94%
    01:00 +3°C° 0 mm 0 m/s 776 mmHg 93%
    02:00 +3°C° 0 mm 0 m/s 776 mmHg 94%
    03:00 +4°C° 0 mm 1 m/s 776 mmHg 95%
    04:00 +3°C° 0 mm 1 m/s 776 mmHg 96%
    05:00 +3°C° 0 mm 1 m/s 776 mmHg 96%
    06:00 +3°C° 0 mm 1 m/s 776 mmHg 96%
    07:00 +3°C° 0 mm 1 m/s 776 mmHg 96%
    08:00 +5°C° 0 mm 0 m/s 776 mmHg 88%
    09:00 +7°C° 0 mm 0 m/s 776 mmHg 79%
    10:00 +10°C° 0 mm 0 m/s 777 mmHg 70%
    11:00 +11°C° 0 mm 0 m/s 776 mmHg 64%
    12:00 +13°C° 0 mm 0 m/s 776 mmHg 57%
    13:00 +14°C° 0 mm 0 m/s 775 mmHg 50%
    14:00 +13°C° 0 mm 0 m/s 775 mmHg 54%
    15:00 +13°C° 0 mm 0 m/s 775 mmHg 58%
    16:00 +13°C° 0 mm 1 m/s 774 mmHg 61%
    17:00 +11°C° 0 mm 1 m/s 775 mmHg 72%
    18:00 +8°C° 0 mm 1 m/s 775 mmHg 83%
    19:00 +5°C° 0 mm 1 m/s 775 mmHg 94%
    20:00 +4°C° 0 mm 1 m/s 775 mmHg 94%
    21:00 +4°C° 0 mm 1 m/s 776 mmHg 95%
    22:00 +4°C° 0 mm 1 m/s 776 mmHg 95%
    23:00 +3°C° 0 mm 1 m/s 775 mmHg 95%

    3 Iunie, Sâmbătă

    Timp Temperatura Precipitaţii Vânt Presiune Umiditate
    00:00 +2°C° 0 mm 0 m/s 775 mmHg 95%
    01:00 +2°C° 0 mm 0 m/s 775 mmHg 95%
    02:00 +1°C° 0 mm 0 m/s 775 mmHg 96%
    03:00 +1°C° 0 mm 0 m/s 774 mmHg 96%
    04:00 +1°C° 0 mm 0 m/s 774 mmHg 96%
    05:00 +1°C° 0 mm 0 m/s 774 mmHg 96%
    06:00 +1°C° 0 mm 0 m/s 775 mmHg 96%
    07:00 +1°C° 0 mm 0 m/s 775 mmHg 96%
    08:00 +4°C° 0 mm 0 m/s 775 mmHg 88%
    09:00 +7°C° 0 mm 0 m/s 775 mmHg 79%
    10:00 +10°C° 0 mm 0 m/s 775 mmHg 70%
    11:00 +11°C° 0 mm 0 m/s 774 mmHg 64%
    12:00 +13°C° 0 mm 0 m/s 773 mmHg 57%
    13:00 +14°C° 0 mm 0 m/s 773 mmHg 50%
    14:00 +13°C° 0 mm 0 m/s 773 mmHg 55%
    15:00 +13°C° 0 mm 0 m/s 772 mmHg 59%
    16:00 +12°C° 0 mm 0 m/s 772 mmHg 64%
    17:00 +10°C° 0 mm 1 m/s 772 mmHg 74%
    18:00 +7°C° 0 mm 1 m/s 772 mmHg 85%
    19:00 +5°C° 0 mm 1 m/s 772 mmHg 95%
    20:00 +5°C° 0 mm 1 m/s 772 mmHg 95%
    21:00 +5°C° 0 mm 1 m/s 772 mmHg 95%
    22:00 +5°C° 0 mm 1 m/s 772 mmHg 94%
    23:00 +5°C° 0 mm 1 m/s 772 mmHg 92%
    Arată mai mult